Powrót do katalogu

CZ-6A DEB

AktywnySSO
NORAD 54992·DEBRIS·🇨🇳 China

Wystrzelony Nov 11, 2022 z Taiyuan Satellite Launch Center

Loading…

Następne Przeloty (najbliższe 24 godziny)

TLE

ŚwieżeSource: Space-Track

Epoka: Sep 13, 2026, 22:45 UTC

1 54992U 22151UH  26256.94818562  .00002055  00000-0  87332-3 0  9992
2 54992  98.7834 273.0860 0024519 354.0650   6.0236 14.26227292197630

Śledź CZ-6A DEB w czasie rzeczywistym z AllMySat

Download on the App Store